Location: Strawberry
(45.6646°N, 111.9596°W)
Time: 00:31:38
(UTC+00:00)

Vanguard 1 Rocket - Pass Details

Date: 05 October 2022
Orbit: 650 x 4225 km, 34.3° (Epoch: 05 December)

Event Time Altitude Azimuth Distance (km) Brightness Sun altitude
Rises 05:07:53 0° 260° (W) 7,661 12.5 -40.5°
Reaches altitude 10° 05:14:00 10° 256° (WSW) 6,137 11.8 -41.2°
Enters shadow 05:26:17 41° 225° (SW) 3,008 9.8 -42.6°
